Regional Weather Roundup
Issued by NWS Newport/Morehead, NC

Home | Current Version | Previous Version | Text Only | Print | Product List | Glossary On
Versions: 1 2 3 4 5 6 7 8 9 10 11 12 13 14 15 16 17 18 19 20 21 22 23 24 25 26 27 28 29 30 31 32 33 34 35 36 37 38 39 40 41 42 43 44 45 46 47 48 49 50
000
ASUS42 KMHX 070813
RWRMHX
WEATHER ROUNDUP FOR EASTERN NORTH CAROLINA
NATIONAL WEATHER SERVICE NEWPORT/MOREHEAD CITY NC
400 AM EDT THU MAY 07 2015

NOTE: "FAIR" INDICATES FEW OR NO CLOUDS BELOW 12,000 FEET
WITH NO SIGNIFICANT WEATHER AND/OR OBSTRUCTIONS TO VISIBILITY

NCZ015>017-031-032-045>047-102-103-070900-
NORTH COAST

CITY           SKY/WX    TMP DP  RH WIND       PRES   REMARKS
EDENTON        MOCLDY    60  59  96 NE6       30.14S
ELIZABETH CITY CLOUDY    63  60  90 NE9       30.15S
KITTY HAWK     CLOUDY    62  61  97 NE3       30.12S
MANTEO         CLOUDY    64  61  89 E7        30.13S

$$

NCZ045>047-081-094-103-104-070900-
CENTRAL COAST

CITY           SKY/WX    TMP DP  RH WIND       PRES   REMARKS
FRISCO         MOCLDY    65  58  78 NE7       30.09F
SWANQUARTER      N/A     63 N/A N/A NE5       30.06S

$$

NCZ095-097-098-100-101-070900-
SOUTHERN COAST

CITY           SKY/WX    TMP DP  RH WIND       PRES   REMARKS
BEAUFORT       CLOUDY    66  62  87 NE9       30.06F
CEDAR ISLAND     N/A     68 N/A N/A N10G20    30.12S
JACKSONVILLE   CLOUDY    65  59  81 NE12      30.06F
PINEY ISLAND   CLOUDY   N/A N/A N/A NE13      30.08F
WILMINGTON     CLOUDY    65  59  81 NE13      30.05F


$$

NCZ011>013-027>030-043-044-078>080-089-090>093-098-070900-
COASTAL PLAIN

CITY           SKY/WX    TMP DP  RH WIND       PRES   REMARKS
AHOSKIE        CLOUDY    57  55  92 CALM      30.15S
CLINTON        CLOUDY    62  58  88 CALM      30.10S
ELIZABETHTOWN  CLOUDY    61  58  90 CALM      30.07F
GOLDSBORO      CLOUDY    62  57  85 NE8       30.09F
GREENVILLE     CLOUDY    61  59  94 E3        30.13F
HAVELOCK       CLOUDY    65  61  87 NE10      30.09F
KENANSVILLE    CLOUDY    61  57  88 CALM      30.10S
KINSTON        CLOUDY    62  58  88 NE5       30.12S
NEW BERN       CLOUDY    63  60  90 NE8       30.10F
RICHLANDS      CLOUDY    63  55  77 N8        30.09S
ROCKY MOUNT    CLOUDY    58  56  93 CALM      30.13F
WASHINGTON     CLOUDY    59  57  92 NE5       30.13S
WHITEVILLE     CLOUDY    64  57  78 N6        30.05F

$$

AMZ130-135-150-152-154-156-158-170-250-252-270-ANZ085-086-088-633-658-670-070900-
MARINE OBSERVATIONS

STATION/POSITION TIME  TEMP    WIND        PRES    WAVE   SWELL
                       AIR SEA DIR/SP/G            HT/PER HT/PER
                 (UTC) (F)     (DEG/KT/KT) (MB)    (FT/S) (FT/S)
CHESAPEAKE LIGHT 0700   62     100/ 11/ 12 1021.8
64 E VA BEACH    0750   62 58   50/  8/  8 1020.7    3/ 8   2/ 8
DUCK             0700   61 52   70/ 13/ 13 1019.6
2 E DUCK         0711      56                N/A     2/11
OREGON INLET     0700   63 65   40/  8/  9 1020.2
13E OREGON INLT  0800      63                N/A     4/ 8   2/11
HATTERAS CG      0700   69 69   50/  7/  9 1018.7
DIAMOND BUOY     0750   72 75   70/ 16/ 17 1018.5    6/ 8   3/ 8
CAPE LOOKOUT     0800   68      40/ 15/ 18 1017.4
BEAUFORT LAB     0700   67 68   30/  5/  8 1017.4
27 SE WRIGHTSVLE 0700   67 71   60/ 19/ 25   N/A
5 SE WRIGHTSVLE  NOT AVBL
225 S CAPE HAT   0750   71 72  120/ 19/ 23 1013.7    8/ 7
41 SE CHARLESTON 0750   70 73   10/ 25/ 31 1012.9   10/ 9   7/ 9

$$


USA.gov is the U.S. government's official web portal to all federal, state and local government web resources and services.